Wind_Speed
3 2 2 3 4 4 4 4 5 4 4 4 4 3 3 4 5 4 4 4 4 4 5 6 7 7 7 8 9 11 12 14 15 18 20 22 24 26 27 29 30 31 32 34
3 3 4 4 5 5 4 5 5 5 5 5 4 3 4 4 5 5 4 4 4 4 5 6 6 7 7 7 7 8 9 12 14 16 18 20 23 26 28 29 29 30 31 33
4 4 4 4 4 5 5 5 5 5 5 5 4 4 4 3 3 4 4 5 5 6 6 6 6 7 7 7 8 10 12 13 15 17 19 22 24 26 27 28 29 31 33 35
5 5 4 4 4 4 5 6 6 6 6 7 6 5 5 5 5 5 5 5 6 6 7 6 6 7 8 9 10 11 12 15 16 18 20 22 24 24 25 27 28 30 32 34
7 6 6 5 5 6 6 7 7 8 8 8 8 7 7 7 7 7 7 7 7 7 7 7 8 9 10 11 12 13 14 16 18 19 21 22 23 23 24 25 27 29 30 32
10 9 8 8 7 7 7 7 8 9 9 10 10 9 8 9 9 9 8 8 8 8 8 8 9 10 11 12 13 15 16 17 19 21 22 23 23 24 25 26 28 29 30 30
12 12 11 10 10 9 9 9 9 9 9 10 10 9 9 9 9 9 9 9 9 9 10 11 12 13 13 15 16 17 19 20 21 22 24 24 24 25 26 27 29 30 30 31
15 14 14 13 13 12 12 11 11 11 11 11 11 11 11 11 11 12 12 12 12 12 13 14 15 16 17 18 19 21 22 23 24 25 26 26 27 27 27 28 30 30 30 31
19 17 17 17 16 16 15 15 14 14 14 13 13 13 13 13 13 13 13 14 14 14 16 16 17 18 19 20 22 23 24 25 27 27 27 28 29 29 30 31 32 31 31 32
22 21 21 20 19 19 19 18 17 17 17 16 15 15 15 15 15 15 15 15 16 16 17 18 19 20 21 22 24 25 27 29 29 29 29 30 31 31 32 33 33 33 33 33
25 25 24 23 22 22 21 21 21 20 20 20 19 19 19 18 17 18 18 18 19 19 20 21 22 23 24 25 26 27 29 30 31 32 31 32 33 33 33 34 34 35 35 35
27 27 27 25 25 23 23 22 22 22 22 22 22 21 21 20 20 20 20 21 21 21 22 23 24 25 26 27 29 30 31 32 33 34 34 34 35 35 35 36 36 36 36 35
29 29 29 28 28 27 26 25 24 24 24 24 23 23 23 23 23 23 23 24 24 24 24 25 26 27 28 30 31 32 33 34 35 35 36 36 37 37 37 37 37 36 36 36
31 31 31 31 31 29 28 27 26 26 26 26 26 26 26 26 26 26 27 27 27 28 28 29 29 30 31 32 33 34 35 36 37 37 37 37 37 38 38 39 38 38 37 37
32 33 32 32 32 32 31 30 28 28 28 28 28 28 28 28 28 28 29 29 30 30 31 31 32 33 34 34 35 36 37 38 39 39 38 38 39 39 39 39 39 39 39 39
34 34 34 34 34 34 33 33 32 31 30 30 30 30 30 30 30 30 31 31 32 32 33 34 34 35 36 37 37 38 39 40 41 40 40 40 40 40 40 40 41 41 41 40
35 35 36 36 36 35 35 36 35 34 33 33 33 33 33 32 32 33 33 33 34 34 35 35 36 36 37 38 39 40 41 41 42 42 42 41 41 41 41 42 42 42 42 41
36 36 37 37 37 37 37 37 36 36 36 35 35 35 35 35 35 35 35 35 35 36 36 37 38 39 39 40 40 41 42 43 44 44 43 43 42 42 42 42 42 42 41 41
38 38 39 39 39 39 39 39 38 38 38 38 37 36 36 36 36 36 37 37 37 38 38 39 40 40 41 42 43 43 43 44 44 44 44 44 44 44 43 43 42 42 41 40
38 38 39 39 39 40 40 40 40 39 39 39 39 38 38 38 38 39 39 39 39 40 40 41 41 42 43 44 44 45 45 46 45 45 45 45 45 45 44 43 42 41 40 39
39 39 39 39 39 40 40 41 41 41 41 40 40 40 40 40 41 41 41 41 41 42 42 43 44 45 45 45 46 46 46 47 47 46 46 45 45 45 44 43 42 41 40 39
38 39 39 40 40 41 41 42 42 42 42 41 41 41 42 42 42 42 43 43 43 44 44 45 45 46 46 46 46 47 47 47 47 47 46 46 45 44 43 42 41 40 39 38
38 39 39 40 40 40 41 41 42 42 42 42 42 43 43 43 44 44 44 44 45 46 46 46 46 47 47 47 47 47 47 47 47 46 46 45 45 43 42 41 40 39 38 37
37 38 39 40 40 40 40 41 41 42 42 43 43 43 44 44 44 44 44 45 45 45 46 46 46 47 47 47 47 47 47 47 47 46 45 44 43 42 40 39 38 38 37 37
36 37 38 39 40 41 42 42 42 41 41 41 41 42 42 43 43 43 44 44 44 45 45 45 46 46 47 47 47 47 47 47 46 45 43 42 40 39 39 39 38 38 37 36
36 36 37 38 39 40 40 40 40 41 41 41 41 41 42 42 42 42 43 43 44 45 45 46 46 46 47 47 47 46 45 44 43 42 41 40 39 38 38 38 37 36 36 35
36 37 37 38 39 39 39 39 39 40 41 41 42 42 42 42 42 42 43 43 44 44 44 45 45 46 45 45 44 43 42 41 40 39 39 39 38 37 36 36 35 34 34 33
Wind_Direction
200 203 213 212 219 224 226 233 231 218 209 202 210 218 229 228 228 245 245 250 250 255 271 288 290 292 289 277 274 279 284 285 283 282 282 281 282 283 280 281 280 278 276 277
234 234 243 238 237 240 246 248 240 226 218 223 226 234 243 249 243 244 245 246 253 274 288 295 299 299 299 297 294 298 300 296 288 288 291 291 291 290 289 286 282 279 278 280
251 242 242 244 247 253 255 251 246 241 235 234 237 247 253 262 258 250 253 259 268 278 289 292 296 297 301 307 309 310 309 304 299 298 297 298 298 295 293 291 288 285 282 281
252 246 251 245 252 259 261 258 252 250 245 242 244 256 258 256 254 255 261 266 271 275 283 287 293 300 305 308 309 312 314 311 309 307 304 304 303 301 299 297 295 292 289 288
254 251 249 246 251 254 256 258 254 252 253 252 252 256 260 256 258 262 265 263 264 264 270 283 295 304 310 312 310 315 318 317 315 315 313 310 309 308 307 306 303 300 297 294
253 253 255 252 251 254 260 261 253 254 254 254 255 256 260 258 258 261 266 265 263 264 272 284 293 301 307 309 312 313 316 318 318 317 314 312 312 312 310 309 308 307 305 301
254 254 255 253 255 257 262 260 254 256 256 256 261 263 263 262 261 263 267 270 272 273 278 285 292 298 304 306 309 311 314 316 317 316 314 312 312 313 312 312 312 311 308 304
251 253 253 255 258 259 263 260 257 257 259 260 264 264 265 264 264 267 269 271 275 279 283 287 292 297 301 304 306 309 311 312 313 313 313 312 313 313 312 313 314 314 312 308
248 250 253 255 258 260 262 261 259 259 258 261 264 265 265 266 268 268 271 274 277 280 284 288 292 295 298 302 305 307 308 310 311 311 311 311 312 313 313 313 313 312 312 310
249 250 254 256 258 260 262 261 259 259 259 259 260 264 268 271 270 269 272 275 280 284 288 292 294 296 299 302 305 307 308 309 310 310 310 310 312 312 312 313 313 312 311 309
251 252 253 255 257 260 261 261 261 260 260 261 261 264 268 271 271 271 273 275 279 284 288 292 295 296 298 301 305 307 309 311 311 311 309 309 310 311 311 311 312 312 312 311
252 253 253 254 257 258 259 260 261 261 262 262 262 264 267 270 271 274 275 277 280 285 288 292 295 297 299 301 304 306 308 310 310 310 308 307 308 309 309 310 311 310 310 310
255 254 254 254 256 256 257 258 260 261 262 262 262 264 267 270 272 275 277 279 281 283 286 290 293 296 298 300 302 306 308 310 310 310 309 308 307 308 308 309 310 309 308 308
255 255 255 255 255 255 256 257 259 260 261 262 263 265 267 270 273 275 277 279 281 283 285 289 292 295 298 299 301 304 307 308 309 309 309 308 307 306 307 307 308 308 307 306
256 256 256 256 256 256 257 258 259 260 261 262 264 265 267 270 272 275 277 279 281 282 285 288 290 293 296 298 300 302 305 307 308 308 307 307 306 305 305 306 307 306 305 305
258 257 257 257 257 257 257 258 259 260 261 263 264 266 268 270 273 276 278 280 281 283 286 289 291 293 295 297 299 301 303 305 306 306 305 306 305 305 305 306 306 306 305 304
259 259 258 257 257 257 257 258 259 261 262 264 266 267 270 272 274 276 277 280 282 284 287 289 291 293 296 298 300 302 303 304 305 305 304 304 304 304 304 304 305 305 305 304
259 259 258 257 256 256 257 258 259 261 263 265 267 269 271 273 275 276 278 280 283 285 288 289 291 293 295 297 299 301 303 304 305 304 304 303 303 303 303 303 303 303 303 303
261 260 258 257 257 257 257 258 259 261 263 265 267 269 271 274 276 278 279 281 283 285 287 289 292 293 295 297 298 300 302 303 304 304 303 303 302 303 303 302 302 303 302 302
261 261 259 258 257 257 257 258 259 261 264 266 268 269 271 273 275 277 279 281 283 285 287 289 292 294 295 296 298 300 301 302 303 303 303 302 302 302 302 301 301 302 302 301
261 261 260 259 258 258 258 258 259 261 264 265 267 269 271 272 274 276 278 280 282 284 286 289 291 293 295 296 298 299 300 301 301 302 301 301 302 302 301 301 300 300 300 299
262 262 261 261 260 260 260 260 260 261 263 265 267 268 270 272 274 275 278 279 281 283 285 288 290 292 293 295 297 299 300 300 301 301 301 300 300 301 301 300 300 299 299 299
264 264 263 262 261 261 261 261 261 262 264 266 268 269 271 272 274 276 277 279 281 282 284 287 289 291 292 294 296 298 299 300 300 300 300 300 299 299 299 299 298 298 298 298
265 264 263 262 262 262 262 263 263 264 265 266 268 270 271 273 274 276 278 279 281 282 285 287 289 290 292 294 295 297 298 299 299 299 299 300 300 299 297 297 297 297 297 297
267 266 265 265 264 264 264 264 264 264 265 266 268 269 272 273 275 276 278 280 281 283 285 287 289 290 292 294 295 297 298 299 299 299 299 299 299 298 297 296 296 296 296 295
267 268 267 266 266 266 265 265 265 265 266 267 268 270 272 274 276 278 279 281 283 284 286 287 289 290 291 293 295 296 298 299 299 299 299 299 299 297 297 296 295 295 294 294
269 269 269 269 268 267 266 266 266 266 267 267 269 271 273 275 277 279 280 282 283 285 287 288 289 290 292 294 296 297 298 298 299 299 299 299 298 297 296 296 295 295 294 294
Height
5644 5644 5644 5645 5645 5645 5645 5645 5645 5646 5646 5646 5646 5646 5646 5646 5646 5646 5646 5646 5646 5647 5647 5646 5645 5645 5644 5643 5644 5643 5643 5642 5642 5642 5642 5641 5641 5640 5638 5637 5636 5635 5634 5633
5645 5645 5645 5645 5645 5645 5645 5645 5645 5645 5646 5646 5646 5646 5646 5646 5646 5646 5645 5645 5645 5645 5645 5644 5644 5643 5642 5642 5641 5641 5640 5639 5639 5638 5637 5636 5634 5632 5630 5628 5627 5625 5624 5623
5645 5645 5645 5646 5645 5645 5645 5644 5644 5644 5646 5645 5645 5645 5645 5645 5645 5644 5644 5644 5644 5644 5644 5643 5643 5642 5641 5640 5640 5639 5638 5637 5635 5634 5632 5630 5627 5624 5622 5619 5617 5616 5614 5613
5644 5646 5645 5648 5645 5644 5644 5644 5644 5644 5644 5644 5645 5644 5644 5644 5644 5644 5644 5643 5643 5643 5643 5642 5642 5641 5640 5639 5638 5637 5635 5634 5632 5629 5627 5624 5621 5618 5615 5612 5609 5607 5605 5602
5644 5644 5644 5645 5644 5643 5643 5643 5643 5642 5643 5643 5643 5643 5643 5643 5642 5642 5642 5642 5642 5642 5642 5641 5640 5639 5638 5637 5636 5634 5632 5629 5627 5624 5621 5618 5615 5611 5608 5605 5602 5599 5595 5592
5642 5642 5643 5645 5643 5642 5643 5643 5642 5641 5641 5641 5641 5642 5642 5641 5641 5640 5641 5641 5640 5640 5640 5639 5638 5637 5636 5634 5633 5630 5628 5625 5622 5619 5616 5612 5609 5606 5602 5599 5595 5591 5587 5584
5640 5640 5641 5642 5641 5642 5643 5643 5641 5640 5640 5640 5640 5640 5640 5639 5639 5639 5638 5638 5638 5637 5637 5636 5635 5634 5633 5631 5629 5626 5623 5620 5617 5614 5611 5607 5604 5600 5596 5593 5589 5584 5580 5576
5637 5637 5640 5638 5639 5639 5640 5639 5638 5638 5638 5638 5638 5637 5637 5637 5636 5636 5635 5635 5635 5634 5634 5633 5632 5630 5628 5626 5624 5621 5619 5616 5612 5608 5605 5601 5598 5594 5590 5586 5582 5577 5572 5568
5634 5636 5635 5634 5635 5635 5635 5635 5635 5635 5635 5635 5635 5634 5634 5633 5633 5633 5632 5632 5631 5630 5629 5628 5627 5626 5624 5622 5619 5616 5613 5610 5606 5602 5598 5595 5591 5587 5583 5579 5574 5570 5565 5561
5628 5630 5630 5630 5630 5630 5631 5631 5631 5631 5632 5632 5631 5631 5630 5630 5629 5629 5628 5627 5627 5626 5625 5623 5622 5620 5618 5616 5613 5610 5607 5603 5600 5596 5592 5588 5584 5580 5576 5572 5567 5562 5558 5554
5622 5624 5623 5624 5624 5625 5625 5626 5626 5627 5627 5627 5627 5626 5626 5625 5625 5624 5623 5623 5622 5621 5620 5618 5616 5614 5612 5610 5607 5604 5600 5596 5592 5588 5585 5581 5576 5572 5568 5564 5559 5555 5550 5546
5616 5617 5617 5618 5618 5619 5620 5620 5620 5620 5621 5621 5621 5621 5620 5620 5619 5619 5618 5617 5616 5615 5614 5612 5610 5608 5606 5603 5600 5597 5593 5589 5585 5581 5577 5573 5569 5564 5560 5556 5551 5546 5542 5537
5608 5609 5610 5611 5612 5612 5613 5613 5613 5614 5614 5614 5614 5614 5614 5614 5613 5612 5612 5611 5610 5608 5607 5605 5603 5601 5598 5596 5593 5589 5586 5582 5577 5573 5569 5564 5560 5556 5551 5547 5542 5538 5533 5529
5599 5600 5601 5603 5604 5604 5605 5606 5606 5606 5607 5607 5607 5607 5607 5606 5606 5605 5604 5603 5602 5601 5599 5598 5596 5593 5590 5587 5584 5581 5577 5573 5569 5564 5560 5556 5551 5547 5542 5538 5533 5529 5524 5520
5590 5591 5593 5594 5595 5596 5596 5597 5598 5598 5599 5599 5599 5599 5599 5598 5598 5597 5596 5595 5594 5592 5591 5589 5587 5584 5581 5578 5575 5572 5568 5564 5559 5555 5550 5546 5541 5537 5533 5528 5524 5520 5515 5511
5580 5581 5583 5584 5585 5586 5587 5588 5589 5590 5590 5590 5591 5590 5590 5590 5589 5589 5588 5586 5585 5584 5582 5579 5577 5575 5572 5569 5565 5562 5558 5554 5549 5545 5540 5536 5531 5527 5522 5518 5514 5509 5505 5501
5569 5570 5572 5573 5575 5576 5577 5578 5579 5580 5581 5581 5581 5581 5581 5581 5580 5580 5578 5577 5576 5574 5572 5570 5567 5564 5561 5558 5555 5551 5547 5543 5538 5534 5530 5525 5521 5516 5512 5507 5503 5498 5494 5490
5558 5559 5561 5562 5563 5565 5566 5568 5569 5570 5571 5571 5572 5572 5572 5571 5571 5570 5569 5567 5566 5564 5562 5559 5557 5554 5551 5548 5544 5540 5536 5532 5527 5523 5518 5514 5509 5505 5501 5496 5492 5487 5483 5479
5546 5548 5549 5550 5552 5554 5555 5557 5558 5559 5560 5561 5561 5561 5561 5561 5560 5559 5558 5557 5555 5554 5551 5548 5546 5543 5540 5536 5532 5529 5524 5520 5516 5511 5507 5502 5498 5493 5489 5484 5480 5476 5471 5467
5535 5536 5537 5539 5540 5542 5544 5545 5546 5548 5549 5549 5550 5550 5550 5550 5549 5548 5547 5546 5544 5541 5539 5537 5534 5531 5528 5524 5520 5517 5512 5508 5504 5499 5495 5490 5486 5481 5476 5472 5468 5464 5460 5456
5523 5524 5525 5527 5529 5530 5532 5533 5534 5536 5536 5537 5537 5538 5538 5537 5537 5536 5535 5534 5532 5529 5527 5525 5522 5519 5515 5512 5508 5504 5500 5496 5491 5487 5482 5478 5473 5469 5464 5460 5456 5452 5448 5445
5511 5512 5513 5515 5517 5518 5519 5520 5521 5523 5524 5524 5524 5524 5524 5524 5523 5522 5521 5520 5518 5516 5514 5511 5509 5505 5502 5498 5495 5491 5487 5483 5478 5474 5469 5465 5460 5456 5452 5448 5444 5440 5437 5433
5499 5500 5501 5502 5504 5505 5506 5507 5508 5509 5510 5511 5511 5511 5511 5510 5509 5509 5508 5506 5504 5502 5500 5498 5495 5492 5488 5485 5482 5478 5474 5469 5465 5460 5456 5452 5448 5444 5440 5436 5432 5429 5425 5422
5487 5487 5488 5489 5491 5492 5493 5494 5495 5496 5496 5497 5497 5497 5497 5496 5496 5494 5493 5492 5490 5488 5486 5484 5481 5478 5474 5471 5468 5464 5460 5456 5451 5447 5443 5439 5435 5431 5427 5424 5421 5417 5414 5411
5475 5475 5476 5477 5478 5479 5480 5481 5482 5482 5483 5483 5484 5484 5483 5482 5482 5481 5479 5478 5476 5474 5472 5470 5467 5464 5461 5458 5454 5450 5446 5442 5438 5433 5429 5425 5422 5418 5415 5412 5409 5406 5403 5400
5463 5464 5464 5465 5465 5466 5467 5467 5468 5469 5469 5470 5471 5470 5470 5469 5468 5467 5466 5464 5463 5461 5458 5456 5453 5450 5447 5443 5440 5436 5432 5428 5424 5421 5417 5413 5409 5406 5403 5400 5397 5394 5392 5389
5452 5452 5452 5452 5452 5453 5453 5454 5455 5456 5456 5457 5457 5457 5456 5456 5455 5454 5452 5451 5449 5447 5444 5442 5439 5436 5432 5429 5426 5422 5419 5415 5412 5408 5405 5401 5398 5394 5391 5388 5386 5383 5381 5378